Location: Franklinton
(36.1018°N, 78.4581°W)
Time: 01:29:29
(UTC-04:00)

OTV 5 (USA 277) - Visible Passes

Search period start: 23 May 2018 00:00
Search period end: 02 June 2018 00:00
Orbit: 308 x 326 km, 54.5° (Epoch: 06 May)

Date Brightness Start Highest point End Pass type
(mag) Time Alt. Az. Time Alt. Az. Time Alt. Az.
25 May ? 05:31:22 10° SSE 05:33:08 16° SE 05:34:54 10° E visible
28 May ? 04:40:45 19° S 04:41:59 27° SE 04:44:23 10° ENE visible
29 May ? 04:54:46 23° SW 04:56:18 80° NW 04:59:04 10° NE visible
30 May ? 03:37:50 12° E 03:37:50 12° E 03:38:21 10° E visible
30 May ? 05:08:42 12° W 05:10:47 25° NW 05:13:08 10° NNE visible
31 May ? 03:51:42 34° ENE 03:51:42 34° ENE 03:53:33 10° NE visible
31 May ? 05:24:30 10° NW 05:25:25 11° NNW 05:26:21 10° NNW visible
01 Jun ? 04:05:31 41° NNW 04:05:31 41° NNW 04:07:55 10° NNE visible
